RYR12YP EBCI-LIPX

Flight info

Callsign RYR12YP
Flight time 1h 15m
Altitude 37000
Route RITAX UT27 ROUSY DCT GTQ DCT DEVDI DCT RIPUS DCT RESIA DCT ATPED DCT TAGIP P131 MOVOR T897 ANJAT
Aircraft B38M/M-SDE1FGHILORVWXY/HB1

Departure

Time 2026-05-04 16:09
Airport Brussels South Charleroi Airport (EBCI)

Arrival

Time 2026-05-04 17:24
Airport Verona Villafranca Valerio Catullo Airport (LIPX)
Time Latitude Longitude Altitude Speed Heading
2026-05-04 15:37 50.46836 4.46988 587 ft 0 kts 336°
2026-05-04 15:56 50.46834 4.46990 587 ft 2 kts 336°
2026-05-04 15:57 50.46812 4.47006 587 ft 2 kts 335°
2026-05-04 15:57 50.46792 4.47013 587 ft 4 kts 27°
2026-05-04 15:57 50.46777 4.46985 588 ft 4 kts 63°
2026-05-04 15:57 50.46769 4.46961 588 ft 0 kts 65°
2026-05-04 16:04 50.46770 4.46964 588 ft 1 kts 65°
2026-05-04 16:04 50.46778 4.46989 588 ft 4 kts 65°
2026-05-04 16:05 50.46793 4.47041 588 ft 6 kts 65°
2026-05-04 16:05 50.46813 4.47111 588 ft 8 kts 66°
2026-05-04 16:05 50.46856 4.47286 588 ft 6 kts 104°
2026-05-04 16:06 50.46843 4.47321 589 ft 5 kts 139°
2026-05-04 16:06 50.46823 4.47549 592 ft 16 kts 66°
2026-05-04 16:07 50.46833 4.47651 595 ft 7 kts 123°
2026-05-04 16:07 50.46677 4.47675 595 ft 12 kts 248°
2026-05-04 16:08 50.46644 4.47555 597 ft 11 kts 246°
2026-05-04 16:08 50.45855 4.44837 744 ft 168 kts 244°
2026-05-04 16:09 50.44763 4.41055 1987 ft 207 kts 246°
2026-05-04 16:09 50.43519 4.36496 3485 ft 233 kts 246°
2026-05-04 16:10 50.42089 4.31616 5218 ft 241 kts 245°
2026-05-04 16:11 50.41222 4.23803 6336 ft 253 kts 295°
2026-05-04 16:11 50.42304 4.21648 6517 ft 252 kts 323°
2026-05-04 16:12 50.47033 4.18029 6925 ft 252 kts 352°
2026-05-04 16:12 50.51930 4.20507 7936 ft 251 kts 27°
2026-05-04 16:13 50.55089 4.23118 9559 ft 260 kts 28°
2026-05-04 16:13 50.58306 4.25862 10937 ft 268 kts 28°
2026-05-04 16:14 50.61604 4.28715 12384 ft 273 kts 28°
2026-05-04 16:14 50.64389 4.32823 13588 ft 293 kts 62°
2026-05-04 16:15 50.63908 4.42556 14446 ft 349 kts 134°
2026-05-04 16:16 50.59866 4.47195 15276 ft 369 kts 141°
2026-05-04 16:16 50.53675 4.54567 17268 ft 376 kts 144°
2026-05-04 16:17 50.49418 4.59492 18407 ft 383 kts 144°
2026-05-04 16:18 50.42901 4.66983 19980 ft 389 kts 145°
2026-05-04 16:18 50.40732 4.69471 20447 ft 392 kts 145°
2026-05-04 16:19 50.34047 4.77110 21929 ft 401 kts 146°
2026-05-04 16:19 50.29524 4.82267 23088 ft 405 kts 146°
2026-05-04 16:20 50.22609 4.90130 24686 ft 413 kts 147°
2026-05-04 16:20 50.17937 4.95419 25586 ft 417 kts 147°
2026-05-04 16:21 50.10844 5.03424 26810 ft 422 kts 147°
2026-05-04 16:22 50.06064 5.08804 27589 ft 425 kts 148°
2026-05-04 16:22 49.98853 5.16894 28701 ft 431 kts 148°
2026-05-04 16:23 49.91520 5.25086 29737 ft 436 kts 148°
2026-05-04 16:24 49.81594 5.36123 30966 ft 440 kts 148°
2026-05-04 16:25 49.76621 5.41614 31741 ft 437 kts 149°
2026-05-04 16:26 49.66758 5.52468 33208 ft 433 kts 149°
2026-05-04 16:26 49.59437 5.60496 34215 ft 430 kts 149°
2026-05-04 16:27 49.54546 5.65841 34687 ft 432 kts 149°
2026-05-04 16:28 49.47171 5.73883 35329 ft 434 kts 149°
2026-05-04 16:28 49.39747 5.81948 35923 ft 437 kts 149°
2026-05-04 16:29 49.29825 5.92681 36686 ft 439 kts 149°
2026-05-04 16:30 49.22314 6.00778 36990 ft 440 kts 149°
2026-05-04 16:31 49.17305 6.06160 36986 ft 439 kts 149°
2026-05-04 16:32 49.02287 6.22219 36992 ft 440 kts 149°
2026-05-04 16:33 48.92242 6.32893 36995 ft 440 kts 149°
2026-05-04 16:34 48.84733 6.40836 36989 ft 440 kts 149°
2026-05-04 16:35 48.69627 6.56728 36978 ft 441 kts 149°
2026-05-04 16:36 48.62061 6.64644 36992 ft 440 kts 149°
2026-05-04 16:37 48.54495 6.72530 36990 ft 440 kts 149°
2026-05-04 16:38 48.44401 6.83005 36986 ft 441 kts 149°
2026-05-04 16:39 48.31742 6.96070 36987 ft 442 kts 149°
2026-05-04 16:40 48.21624 7.06456 36979 ft 442 kts 150°
2026-05-04 16:41 48.08878 7.19466 36984 ft 443 kts 150°
2026-05-04 16:43 47.96153 7.32376 36990 ft 444 kts 150°
2026-05-04 16:43 47.88472 7.40131 36993 ft 444 kts 150°
2026-05-04 16:45 47.73369 7.56091 36999 ft 452 kts 133°
2026-05-04 16:46 47.63984 7.75018 37021 ft 456 kts 130°
2026-05-04 16:47 47.56432 7.90100 37004 ft 455 kts 130°
2026-05-04 16:48 47.48842 8.05174 36974 ft 459 kts 131°
2026-05-04 16:49 47.41214 8.20241 36983 ft 459 kts 131°
2026-05-04 16:50 47.34200 8.34025 36964 ft 458 kts 130°
2026-05-04 16:51 47.28438 8.45296 36981 ft 458 kts 130°
2026-05-04 16:52 47.20883 8.60493 36971 ft 460 kts 130°
2026-05-04 16:53 47.15221 8.71914 36963 ft 461 kts 129°
2026-05-04 16:54 47.07673 8.87065 36981 ft 461 kts 129°
2026-05-04 16:55 46.96251 9.09835 36995 ft 463 kts 129°
2026-05-04 16:56 46.86685 9.28762 37016 ft 462 kts 130°
2026-05-04 16:57 46.80950 9.40048 37028 ft 463 kts 130°
2026-05-04 16:58 46.73284 9.55061 37072 ft 463 kts 130°
2026-05-04 17:00 46.61688 9.77619 37174 ft 465 kts 130°
2026-05-04 17:00 46.55816 9.88973 35382 ft 464 kts 130°
2026-05-04 17:01 46.51970 9.96388 34100 ft 461 kts 130°
2026-05-04 17:01 46.48076 10.03762 32489 ft 459 kts 136°
2026-05-04 17:02 46.43268 10.09774 30824 ft 458 kts 142°
2026-05-04 17:02 46.38351 10.15713 29031 ft 461 kts 142°
2026-05-04 17:03 46.35883 10.18670 28158 ft 460 kts 142°
2026-05-04 17:03 46.33438 10.21592 27247 ft 462 kts 142°
2026-05-04 17:03 46.28545 10.27431 26106 ft 449 kts 142°
2026-05-04 17:04 46.23753 10.33136 24874 ft 443 kts 142°
2026-05-04 17:04 46.19028 10.38748 23659 ft 437 kts 142°
2026-05-04 17:05 46.14363 10.44276 22259 ft 432 kts 143°
2026-05-04 17:05 46.09783 10.49689 21143 ft 423 kts 143°
2026-05-04 17:06 46.05270 10.55012 20003 ft 417 kts 143°
2026-05-04 17:06 46.03030 10.57649 19440 ft 414 kts 143°
2026-05-04 17:07 45.98603 10.62852 18343 ft 407 kts 143°
2026-05-04 17:07 45.97148 10.64561 17944 ft 406 kts 144°
2026-05-04 17:07 45.94233 10.67981 17207 ft 401 kts 143°
2026-05-04 17:07 45.92071 10.70509 16617 ft 399 kts 144°
2026-05-04 17:08 45.89937 10.73003 16123 ft 393 kts 143°
2026-05-04 17:08 45.85734 10.77909 15148 ft 385 kts 143°
2026-05-04 17:08 45.83662 10.80286 14699 ft 377 kts 147°
2026-05-04 17:09 45.81330 10.81873 14171 ft 369 kts 167°
2026-05-04 17:09 45.78805 10.82229 13692 ft 363 kts 181°
2026-05-04 17:09 45.76295 10.82201 13228 ft 358 kts 181°
2026-05-04 17:10 45.71367 10.82112 12312 ft 350 kts 181°
2026-05-04 17:10 45.64285 10.81797 11346 ft 327 kts 191°
2026-05-04 17:11 45.62115 10.81003 11179 ft 317 kts 194°
2026-05-04 17:11 45.60011 10.80216 11012 ft 308 kts 194°
2026-05-04 17:11 45.55995 10.78713 10706 ft 289 kts 194°
2026-05-04 17:12 45.54084 10.77997 10563 ft 280 kts 194°
2026-05-04 17:12 45.50437 10.76630 10292 ft 263 kts 195°
2026-05-04 17:13 45.45332 10.74713 9717 ft 256 kts 194°
2026-05-04 17:14 45.40149 10.72461 8876 ft 262 kts 214°
2026-05-04 17:14 45.38793 10.70728 8633 ft 263 kts 222°
2026-05-04 17:14 45.36163 10.67110 8141 ft 263 kts 223°
2026-05-04 17:15 45.34875 10.65272 7891 ft 262 kts 224°
2026-05-04 17:15 45.32416 10.61654 7391 ft 251 kts 224°
2026-05-04 17:16 45.30039 10.58169 6929 ft 240 kts 224°
2026-05-04 17:16 45.26463 10.53651 6245 ft 222 kts 194°
2026-05-04 17:17 45.24963 10.53743 5985 ft 218 kts 159°
2026-05-04 17:17 45.21675 10.57773 5452 ft 200 kts 137°
2026-05-04 17:18 45.20927 10.59394 5198 ft 200 kts 106°
2026-05-04 17:18 45.21757 10.62953 4736 ft 197 kts 48°
2026-05-04 17:19 45.23641 10.65727 4325 ft 197 kts 47°
2026-05-04 17:19 45.25552 10.68504 3854 ft 196 kts 46°
2026-05-04 17:20 45.27446 10.71248 3345 ft 193 kts 45°
2026-05-04 17:20 45.29324 10.73972 2829 ft 193 kts 44°
2026-05-04 17:20 45.30261 10.75333 2594 ft 193 kts 42°
2026-05-04 17:21 45.32137 10.78055 2050 ft 189 kts 44°
2026-05-04 17:21 45.33789 10.80457 1655 ft 151 kts 43°
2026-05-04 17:22 45.34505 10.81495 1443 ft 148 kts 43°
2026-05-04 17:22 45.35221 10.82536 1217 ft 147 kts 42°
2026-05-04 17:23 45.37363 10.85662 668 ft 147 kts 44°
2026-05-04 17:23 45.38077 10.86701 467 ft 147 kts 43°
2026-05-04 17:23 45.39452 10.88683 241 ft 111 kts 45°
2026-05-04 17:24 45.39868 10.89286 243 ft 77 kts 46°
2026-05-04 17:24 45.40324 10.90189 245 ft 17 kts 75°
2026-05-04 17:25 45.40331 10.90230 245 ft 3 kts 75°
2026-05-04 17:25 45.40360 10.90323 245 ft 6 kts 47°
2026-05-04 17:26 45.40422 10.90425 244 ft 4 kts 82°
2026-05-04 17:26 45.40378 10.90501 245 ft 0 kts 136°